Regional Weather Roundup
Issued by NWS

Home | Current Version | Previous Version | Graphics & Text | Print | Product List | Glossary On
Versions: 1 2 3 4 5 6 7 8 9 10 11 12 13 14 15 16 17 18 19 20 21 22 23 24 25 26 27 28 29 30 31 32 33 34 35 36 37 38 39 40 41 42 43 44 45 46 47 48 49 50
468
ASUS43 KMKX 210300
RWRWI

WISCONSIN REGIONAL WEATHER ROUNDUP
NATIONAL WEATHER SERVICE MILWAUKEE/SULLIVAN WI
1000 PM CDT THU JUL 20 2017

NOTE: "FAIR" INDICATES FEW OR NO CLOUDS BELOW 12,000 FEET WITH NO
SIGNIFICANT WEATHER AND/OR OBSTRUCTIONS TO VISIBILITY.

WIZ001-002-006>008-014>016-023>028-210400-
NORTHWEST WISCONSIN

CITY           SKY/WX    TMP DP  RH WIND       PRES   REMARKS
SUPERIOR ARPT  NOT AVBL
ASHLAND        CLEAR     68  63  84 SW6       29.96R
HAYWARD        CLEAR     67  64  90 CALM      29.99R
SIREN          CLEAR     71  68  88 CALM      29.98S
CUMBERLAND     CLEAR     70  66  88 S3        30.00R
RICE LAKE      CLEAR     70  67  92 CALM      30.01R
CHETEK           N/A     70  68  93 CALM      30.00R
LADYSMITH      CLEAR     71  65  82 CALM      30.01R
EAU CLAIRE     NOT AVBL
MENOMONIE      CLEAR     75  69  82 CALM      29.98S
NEW RICHMOND   CLEAR     72  67  84 CALM      29.99R
OSCEOLA        CLEAR     71  71 100 E3        30.00S
$$

WIZ003>005-009-010-017-018-210400-
NORTH CENTRAL WISCONSIN

CITY           SKY/WX    TMP DP  RH WIND       PRES   REMARKS
MANITOWISH WTR CLEAR     63  63 100 CALM      30.01R
ARBOR VITAE    CLEAR     67  62  83 CALM      30.01R
WOODRUFF       CLEAR     67  62  83 CALM      30.01R
RHINELANDER    CLEAR     62  61  96 W3        30.02R
EAGLE RIVER    CLEAR     64  57  78 CALM      30.00R
LAND O LAKES   CLEAR     61  58  91 CALM      30.02R
PHILLIPS       CLEAR     65  64  94 CALM      30.00S
TOMAHAWK         N/A     64  61  90 CALM      30.01R
MEDFORD        CLEAR     69  65  89 CALM      30.01R
MERRILL        CLEAR     67  65  91 CALM      30.00R
$$

WIZ029-030-035-036-043>047-210400-
CENTRAL WISCONSIN

CITY           SKY/WX    TMP DP  RH WIND       PRES   REMARKS
WAUSAU         CLEAR     73  66  78 CALM      29.98R
MOSINEE        CLEAR     72  66  83 NW3       30.00S
MARSHFIELD     CLEAR     69  64  84 NW5       29.99R
STEVENS POINT  CLEAR     72  65  80 CALM      29.98F
WAUPACA        CLEAR     75  67  75 CALM      29.96F
WAUTOMA        CLEAR     71  68  90 CALM      29.97S
WISC RAPIDS    CLEAR     68  66  93 CALM      29.99S
CAMP DOUGLAS   CLEAR     72  70  94 NW3       29.97S
$$

WIZ011>013-019>022-031-037>040-048>050-210400-
NORTHEAST WISCONSIN

CITY           SKY/WX    TMP DP  RH WIND       PRES   REMARKS
ANTIGO         CLEAR     69  62  76 W6        30.00F
SHAWANO        CLEAR     72  65  77 CALM      29.95F
OCONTO         CLEAR     71  67  89 CALM      29.93S
STURGEON BAY     N/A     71  68  90 S5        29.94F
GREEN BAY      CLEAR     72  70  93 CALM      29.95S
MANITOWOC      NOT AVBL
APPLETON       MOCLDY    72  63  73 VRB5      29.95S
CLINTONVILLE   CLEAR     72  63  73 CALM      29.95F
OSHKOSH        CLEAR     74  68  81 SW5       29.96S
$$

WIZ032>034-041-042-053>061-210400-
SOUTHWEST WISCONSIN

CITY           SKY/WX    TMP DP  RH WIND       PRES   REMARKS
LA CROSSE      CLEAR     74  70  87 CALM      29.96R
SPARTA         CLEAR     70  69  97 CALM      29.98R
VIROQUA        CLEAR     71  71  98 NE3       29.99F
BOSCOBEL       CLEAR     72  70  93 CALM      29.98R
PRAIRIE DU CHI CLEAR     74  71  89 CALM      29.97R
PLATTEVILLE    CLEAR     76  75  96 CALM      29.99R
$$

WIZ056-057-062-063-064-067-068-210400-
SOUTH CENTRAL WISCONSIN

CITY           SKY/WX    TMP DP  RH WIND       PRES   REMARKS
REEDSBURG      CLEAR     72  72 100 CALM      29.98R
BARABOO/DELLS  CLEAR     71  68  90 CALM      29.98S
LONE ROCK      NOT AVBL
MINERAL POINT  CLOUDY    77  72  83 CALM      29.99R
MADISON        CLOUDY    74  69  85 CALM      29.97S
MIDDLETON      CLOUDY    74  72  94 N5        29.98F
WATERTOWN      CLOUDY    77  71  81 CALM      29.97S
MONROE         CLOUDY    77  70  78 NE6       29.97F
JANESVILLE     CLOUDY    77  75  94 CALM      29.96F
$$

WIZ051-052-058>065-066-070>072-210400-
SOUTHEAST WISCONSIN

CITY           SKY/WX    TMP DP  RH WIND       PRES   REMARKS
MILWAUKEE      PTCLDY    76  70  82 CALM      29.96F
WAUKESHA       NOT AVBL
MILWAUKEE/TIMM CLOUDY    77  68  73 S5        29.98S
RACINE         CLEAR     72  69  90 SW5       29.98F
KENOSHA        CLEAR     72  68  87 S3        29.97F
FOND DU LAC    CLEAR     71  67  87 CALM      29.97S
SHEBOYGAN      PTCLDY    71  71 100 S3        29.96S
WEST BEND      PTCLDY    72  72 100 CALM      29.98R
JUNEAU         MOCLDY    74  68  81 CALM      29.98F
$$

LSZ147-162-210400-
LAKE SUPERIOR

STATION/POSITION TIME  TEMP    WIND        PRES    WAVE
                       AIR SEA DIR/SP/G            HT/PER
                 (UTC) (F)     (DEG/KT/KT) (MB)    (FT/S)
W MID LAKE BUOY  0150   56 48  230/  8/  8 1013.1S   1
DEVILS ISLAND    0200   70     240/  9/ 11 1013.3R
SAXON HARBOR     0230   71     200/  5/  6 1013.5R
$$

LMZ867-665-643>646-210400-
LAKE MICHIGAN

STATION/POSITION TIME  TEMP    WIND        PRES    WAVE
                       AIR SEA DIR/SP/G            HT/PER
                 (UTC) (F)     (DEG/KT/KT) (MB)    (FT/S)
CHAMBERS ISLAND  0230   77     280/  6/  8 1012.9R
S GREEN BAY BUOY 0230   76 74  240/  6/  6 1013.5R
N MID LAKE BUOY  0150   68 65  190/ 10/ 12 1013.9R   1/ 5
NORTHPORT PIER   0240   71     320/  3/  5 1013.5R
KEWAUNEE LAKESHO 0230   70     180/  3/  5 1013.5S
SHEBOYGAN LAKESH 0200   72     180/  5/  7 1014.0R
PORT WASHINGTON  0240   72     220/  2/  5 1015.6S
ATWATER BUOY     0109   71 70  160/ 10/ 12 1014.6F
MILWAUKEE LAKESH 0230   71     180/  3/  4   N/A
S MID LAKE BUOY  0150   72 72  210/  4/  4 1014.6R   1/ 4
KENOSHA   LAKESH 0200   75     210/  3/  6 1014.6
$$

TC  - TEMPERATURE IN CELSIUS
VSB - VISIBILITY IN STATUTE MILES
WCI - WIND CHILL INDEX
HX  - HEAT INDEX





USA.gov is the U.S. government's official web portal to all federal, state and local government web resources and services.